| time (UTC) | temp F | wind direction | speed MPH | gust MPH | rain 1hr in | rain 24hr in | rain mn in | humidity % | barometer mb |
| 20260905111510 | 63 | 315 | 9.0 | 18.0 | 0.00 | 0.18 | 0.01 | 57 | 1002.0 |
| 20260905110009 | 62 | 269 | 8.0 | 20.0 | 0.00 | 0.18 | 0.01 | 58 | 1001.5 |
| 20260905104510 | 62 | 290 | 11.0 | 20.0 | 0.00 | 0.18 | 0.01 | 59 | 1001.4 |
| 20260905103015 | 61 | 315 | 9.0 | 23.0 | 0.00 | 0.18 | 0.01 | 61 | 1001.2 |
| 20260905101509 | 60 | 277 | 6.0 | 24.0 | 0.00 | 0.18 | 0.01 | 64 | 1001.2 |
| 20260905100015 | 60 | 319 | 7.0 | 20.0 | 0.00 | 0.18 | 0.01 | 62 | 1001.0 |
| 20260905094512 | 61 | 247 | 4.0 | 17.0 | 0.00 | 0.18 | 0.01 | 65 | 1000.8 |
| 20260905093009 | 60 | 250 | 5.0 | 16.0 | 0.00 | 0.18 | 0.01 | 66 | 1000.9 |
| 20260905091510 | 60 | 250 | 5.0 | 15.0 | 0.00 | 0.18 | 0.01 | 68 | 1000.6 |
| 20260905090010 | 59 | 220 | 3.0 | 15.0 | 0.00 | 0.18 | 0.01 | 70 | 1000.5 |
| 20260905084510 | 58 | 234 | 6.0 | 14.0 | 0.00 | 0.18 | 0.01 | 73 | 1000.4 |
| 20260905083010 | 58 | 303 | 3.0 | 10.0 | 0.00 | 0.18 | 0.01 | 74 | 1000.1 |
| 20260905081510 | 57 | 271 | 6.0 | 10.0 | 0.00 | 0.18 | 0.01 | 77 | 1000.0 |
| 20260905080011 | 57 | 245 | 6.0 | 9.0 | 0.00 | 0.18 | 0.01 | 79 | 1000.0 |
| 20260905074510 | 55 | 224 | 2.0 | 10.0 | 0.00 | 0.18 | 0.01 | 82 | 999.8 |
| 20260905073009 | 55 | 253 | 6.0 | 12.0 | 0.00 | 0.18 | 0.01 | 83 | 999.8 |
| 20260905071514 | 55 | 218 | 5.0 | 10.0 | 0.00 | 0.18 | 0.01 | 83 | 999.7 |
| 20260905070010 | 55 | 215 | 6.0 | 10.0 | 0.00 | 0.18 | 0.01 | 84 | 999.5 |
| 20260905064510 | 54 | 192 | 3.0 | 10.0 | 0.00 | 0.18 | 0.01 | 87 | 999.7 |
| 20260905063009 | 53 | 203 | 2.0 | 7.0 | 0.00 | 0.18 | 0.01 | 87 | 999.3 |
| 20260905061512 | 53 | 217 | 3.0 | 10.0 | 0.00 | 0.18 | 0.01 | 87 | 999.5 |
| 20260905060010 | 53 | 210 | 3.0 | 9.0 | 0.00 | 0.18 | 0.01 | 88 | 999.4 |
| 20260905054531 | 52 | 221 | 3.0 | 10.0 | 0.00 | 0.18 | 0.01 | 88 | 999.4 |
| 20260905053010 | 52 | 184 | 1.0 | 6.0 | 0.00 | 0.18 | 0.01 | 87 | 999.4 |
| 20260905051509 | 52 | 207 | 0.0 | 7.0 | 0.00 | 0.18 | 0.01 | 87 | 999.4 |
| 20260905050013 | 52 | 236 | 4.0 | 9.0 | 0.00 | 0.18 | 0.01 | 88 | 999.4 |
| 20260905044513 | 52 | 200 | 3.0 | 8.0 | 0.00 | 0.18 | 0.01 | 88 | 999.3 |
| 20260905043009 | 52 | 227 | 4.0 | 15.0 | 0.00 | 0.18 | 0.01 | 86 | 999.2 |
| 20260905041510 | 52 | 232 | 8.0 | 14.0 | 0.00 | 0.18 | 0.01 | 87 | 999.1 |
| 20260905040013 | 52 | 219 | 7.0 | 13.0 | 0.00 | 0.18 | 0.01 | 86 | 999.1 |
| 20260905034510 | 52 | 204 | 5.0 | 12.0 | 0.00 | 0.18 | 0.01 | 86 | 999.1 |
| 20260905033009 | 51 | 243 | 4.0 | 11.0 | 0.00 | 0.18 | 0.01 | 90 | 999.2 |
| 20260905031509 | 51 | 205 | 1.0 | 6.0 | 0.00 | 0.18 | 0.01 | 92 | 999.1 |
| 20260905030009 | 51 | 200 | 0.0 | 0.0 | 0.00 | 0.18 | 0.01 | 92 | 999.0 |
| 20260905024512 | 51 | 201 | 0.0 | 7.0 | 0.00 | 0.18 | 0.01 | 92 | 999.0 |
| 20260905023018 | 51 | 215 | 1.0 | 4.0 | 0.00 | 0.18 | 0.01 | 94 | 998.8 |
| 20260905021509 | 51 | 215 | 0.0 | 6.0 | 0.00 | 0.18 | 0.01 | 95 | 998.8 |
| 20260905020010 | 50 | 192 | 2.0 | 4.0 | 0.00 | 0.18 | 0.01 | 95 | 998.7 |
| 20260905014509 | 51 | 192 | 0.0 | 0.0 | 0.00 | 0.18 | 0.01 | 95 | 998.7 |
| 20260905013009 | 51 | 192 | 0.0 | 4.0 | 0.00 | 0.18 | 0.01 | 95 | 998.5 |
| 20260905011510 | 50 | 191 | 0.0 | 4.0 | 0.00 | 0.18 | 0.01 | 95 | 998.5 |
| 20260905010011 | 50 | 231 | 1.0 | 4.0 | 0.00 | 0.18 | 0.01 | 95 | 998.3 |
| 20260905004509 | 51 | 231 | 0.0 | 3.0 | 0.00 | 0.18 | 0.01 | 96 | 998.2 |
| 20260905003009 | 50 | 231 | 1.0 | 3.0 | 0.00 | 0.18 | 0.01 | 95 | 998.1 |
| 20260905001510 | 50 | 231 | 0.0 | 3.0 | 0.00 | 0.18 | 0.01 | 95 | 997.9 |
| 20260905000010 | 50 | 231 | 0.0 | 3.0 | 0.01 | 0.18 | 0.01 | 94 | 998.2 |
| 20260904234513 | 51 | 231 | 0.0 | 2.0 | 0.01 | 0.18 | 0.01 | 93 | 998.2 |
| 20260904233012 | 51 | 231 | 0.0 | 3.0 | 0.01 | 0.18 | 0.01 | 92 | 998.1 |
| 20260904231510 | 51 | 231 | 0.0 | 2.0 | 0.01 | 0.18 | 0.01 | 91 | 998.0 |
| 20260904230010 | 52 | 231 | 0.0 | 0.0 | 0.00 | 0.17 | 0.00 | 90 | 998.1 |
| 20260904224509 | 52 | 231 | 0.0 | 1.0 | 0.00 | 0.17 | 0.00 | 89 | 998.0 |
| 20260904223010 | 52 | 231 | 1.0 | 4.0 | 0.00 | 0.17 | 0.00 | 90 | 997.9 |
| 20260904220009 | 52 | 253 | 1.0 | 3.0 | 0.00 | 0.17 | 0.17 | 90 | 997.7 |
| 20260904214509 | 52 | 253 | 0.0 | 0.0 | 0.00 | 0.17 | 0.17 | 88 | 997.4 |
| 20260904213012 | 52 | 254 | 0.0 | 4.0 | 0.00 | 0.17 | 0.17 | 88 | 997.2 |
| 20260904211516 | 52 | 253 | 0.0 | 4.0 | 0.00 | 0.17 | 0.17 | 87 | 997.2 |
| 20260904210021 | 53 | 253 | 1.0 | 4.0 | 0.00 | 0.17 | 0.17 | 86 | 997.2 |
| 20260904204517 | 53 | 252 | 3.0 | 8.0 | 0.00 | 0.17 | 0.17 | 86 | 997.4 |
| 20260904203009 | 53 | 258 | 3.0 | 8.0 | 0.00 | 0.17 | 0.17 | 87 | 997.3 |
| 20260904201509 | 54 | 289 | 0.0 | 5.0 | 0.00 | 0.17 | 0.17 | 88 | 997.2 |
| 20260904200009 | 54 | 289 | 0.0 | 5.0 | 0.02 | 0.18 | 0.17 | 87 | 997.1 |
| 20260904194509 | 54 | 294 | 2.0 | 5.0 | 0.02 | 0.18 | 0.17 | 88 | 997.0 |
| 20260904193010 | 55 | 294 | 1.0 | 4.0 | 0.04 | 0.18 | 0.17 | 87 | 997.0 |
| 20260904191511 | 55 | 309 | 2.0 | 8.0 | 0.05 | 0.18 | 0.17 | 88 | 997.1 |
| 20260904190011 | 55 | 279 | 4.0 | 13.0 | 0.06 | 0.24 | 0.16 | 88 | 997.2 |
| 20260904184509 | 55 | 294 | 4.0 | 13.0 | 0.06 | 0.24 | 0.15 | 89 | 997.0 |
| 20260904183009 | 55 | 289 | 5.0 | 10.0 | 0.06 | 0.22 | 0.13 | 90 | 996.8 |
| 20260904181511 | 55 | 237 | 3.0 | 10.0 | 0.05 | 0.21 | 0.13 | 91 | 996.6 |
| 20260904180009 | 55 | 259 | 9.0 | 12.0 | 0.02 | 0.24 | 0.10 | 93 | 996.6 |
| 20260904174511 | 55 | 165 | 0.0 | 3.0 | 0.01 | 0.22 | 0.09 | 94 | 996.4 |
| 20260904173010 | 55 | 165 | 0.0 | 0.0 | 0.01 | 0.21 | 0.08 | 94 | 996.4 |
| 20260904171518 | 55 | 165 | 1.0 | 8.0 | 0.02 | 0.21 | 0.08 | 93 | 996.4 |
| 20260904170009 | 55 | 167 | 2.0 | 5.0 | 0.03 | 0.24 | 0.08 | 92 | 996.3 |
| 20260904164509 | 55 | 167 | 4.0 | 5.0 | 0.06 | 0.24 | 0.08 | 92 | 996.3 |
| 20260904163009 | 56 | 165 | 4.0 | 8.0 | 0.07 | 0.23 | 0.07 | 91 | 996.3 |
| 20260904161509 | 56 | 174 | 5.0 | 8.0 | 0.06 | 0.22 | 0.06 | 90 | 996.2 |
| 20260904160011 | 57 | 165 | 6.0 | 8.0 | 0.05 | 0.24 | 0.05 | 87 | 996.2 |
| 20260904154508 | 57 | 227 | 2.0 | 9.0 | 0.02 | 0.22 | 0.02 | 83 | 996.4 |
| 20260904153018 | 59 | 188 | 4.0 | 10.0 | 0.00 | 0.20 | 0.00 | 81 | 996.4 |
| 20260904151511 | 59 | 184 | 5.0 | 13.0 | 0.00 | 0.20 | 0.00 | 78 | 996.4 |
| 20260904150025 | 60 | 175 | 7.0 | 16.0 | 0.00 | 0.24 | 0.00 | 74 | 996.4 |
| 20260904144511 | 61 | 205 | 6.0 | 9.0 | 0.00 | 0.24 | 0.00 | 68 | 996.2 |
| 20260904143011 | 62 | 223 | 3.0 | 10.0 | 0.00 | 0.24 | 0.00 | 67 | 996.3 |
| 20260904141509 | 62 | 204 | 7.0 | 12.0 | 0.00 | 0.24 | 0.00 | 65 | 996.4 |
| 20260904140009 | 62 | 237 | 5.0 | 10.0 | 0.00 | 0.24 | 0.00 | 65 | 996.4 |
| 20260904134529 | 63 | 252 | 7.0 | 11.0 | 0.00 | 0.24 | 0.00 | 61 | 996.5 |
| 20260904133009 | 63 | 207 | 4.0 | 11.0 | 0.00 | 0.24 | 0.00 | 62 | 996.6 |
| 20260904131513 | 62 | 234 | 5.0 | 11.0 | 0.00 | 0.24 | 0.00 | 63 | 996.7 |
| 20260904130017 | 63 | 254 | 7.0 | 13.0 | 0.00 | 0.24 | 0.00 | 62 | 996.9 |
| 20260904123010 | 63 | 261 | 6.0 | 11.0 | 0.00 | 0.24 | 0.00 | 61 | 997.4 |
| 20260904121510 | 63 | 257 | 6.0 | 13.0 | 0.00 | 0.24 | 0.00 | 60 | 997.5 |
| 20260904120009 | 63 | 223 | 7.0 | 14.0 | 0.00 | 0.24 | 0.00 | 61 | 997.6 |
| 20260904114521 | 63 | 202 | 4.0 | 9.0 | 0.00 | 0.24 | 0.00 | 63 | 997.6 |
| 20260904113010 | 62 | 229 | 4.0 | 11.0 | 0.00 | 0.24 | 0.00 | 64 | 997.8 |